Location: Waltman Observatory
(32.5145°N, 90.4450°W)
Time: 19:47:28
(UTC-05:00)

Amateur Radio Satellites - All Passes

Search period start: 30 June 2016 19:17
Search period end: 01 July 2016 19:17
Location: Waltman Observatory, 32.5145°N, 90.4450°W

Satellite Date Start Highest point End Downlink Frequencies (MHz)
Time Altitude Azimuth
Cubesat XI-IV 30 Jun 19:17:51 19:22:48 38° 261° (W) 19:27:48 437.490
GOMX 1 30 Jun 19:18:29 19:23:02 53° 260° (W) 19:27:20 467.674
CANX-2 30 Jun 19:23:49 19:26:39 17° 69° (ENE) 19:29:29 2200.000
NOAA 18 30 Jun 19:31:55 19:36:25 26° 263° (W) 19:40:57 137.9125
AO-85 30 Jun 19:36:46 19:38:57 12° 106° (ESE) 19:41:07 145.980
CUTE 1.7 + AOD 2 30 Jun 19:42:35 19:46:05 25° 71° (ENE) 19:49:35 437.475
STRAND 1 30 Jun 19:42:36 19:47:17 35° 98° (E) 19:51:56 437.568
SEEDS 30 Jun 19:42:57 19:45:47 18° 70° (ENE) 19:48:38 437.485
CUTE-I 30 Jun 19:53:10 19:56:39 18° 266° (W) 20:00:10 437.470
HO-68 30 Jun 20:05:45 20:12:49 67° 72° (ENE) 20:19:55 435.675
DOVE 4 30 Jun 20:07:28 20:11:21 32° 262° (W) 20:15:09 437.250
AAUSAT CUBESAT 2 30 Jun 20:14:44 20:18:00 22° 71° (ENE) 20:21:17 437.432
SRMSAT 30 Jun 20:20:46 20:24:56 20° 190° (S) 20:29:05 437.500
GONETS M04 30 Jun 20:23:11 20:29:32 22° 289° (WNW) 20:35:56
M-CUBED/EXP-1 PRIME 30 Jun 20:23:15 20:25:12 15° 66° (ENE) 20:27:10 437.505
CUBEBUG 2 30 Jun 20:26:42 20:30:08 25° 71° (ENE) 20:33:38 437.445
Cosmos 2499 30 Jun 20:34:36 20:41:21 27° 288° (WNW) 20:48:28 435.465 / 435.565
ZACube-1 30 Jun 20:43:12 20:45:55 17° 69° (ENE) 20:48:41 437.345
CINEMA 3 30 Jun 20:45:20 20:49:17 44° 261° (W) 20:53:16 145.822/145.860
RS-15 30 Jun 20:46:09 20:58:23 61° 57° (ENE) 21:10:22 29.354- 29.394
Oscar 11 30 Jun 20:47:44 20:51:02 22° 70° (ENE) 20:54:21 145.826/435.025
COMPASS 1 30 Jun 20:50:10 20:54:23 83° 76° (ENE) 20:58:37 437.405
CANX-2 30 Jun 20:58:26 21:02:13 31° 263° (W) 21:06:02 2200.000
FUNcube-1 30 Jun 20:58:39 21:02:02 24° 71° (ENE) 21:05:28 145.935
PRISM 30 Jun 21:01:57 21:05:35 31° 98° (E) 21:09:11 437.425
UWE-3 30 Jun 21:08:12 21:12:16 55° 75° (ENE) 21:16:27 435.000/436.395/437.385
AO-85 30 Jun 21:13:27 21:18:53 72° 299° (WNW) 21:24:12 145.980
AUBIESAT-1 30 Jun 21:14:40 21:17:57 71° 72° (ENE) 21:21:14 437.475
SEEDS 30 Jun 21:17:29 21:21:13 30° 263° (W) 21:24:59 437.485
CUTE 1.7 + AOD 2 30 Jun 21:18:35 21:21:49 21° 265° (W) 21:25:05 437.475
STRAND 1 30 Jun 21:22:17 21:26:11 22° 292° (WNW) 21:30:05 437.568
HUMSAT D 30 Jun 21:35:27 21:37:41 14° 68° (ENE) 21:39:58 437.325/437.525
DELFI C3 30 Jun 21:40:35 21:44:18 37° 74° (ENE) 21:48:03 145.870
AAUSAT CUBESAT 2 30 Jun 21:50:03 21:53:21 22° 264° (W) 21:56:40 437.432
HO-68 30 Jun 21:56:22 22:00:56 18° 266° (W) 22:05:32 435.675
M-CUBED/EXP-1 PRIME 30 Jun 21:57:16 21:59:38 18° 259° (WSW) 22:02:00 437.505
CUBEBUG 2 30 Jun 22:03:43 22:06:43 19° 265° (W) 22:09:45 437.445
SRMSAT 30 Jun 22:12:46 22:13:26 10° 198° (SSW) 22:14:06 437.500
ZACube-1 30 Jun 22:18:14 22:21:55 30° 263° (W) 22:25:42 437.345
Oscar 11 30 Jun 22:23:25 22:27:00 25° 264° (W) 22:30:36 145.826/435.025
TIGRISAT 30 Jun 22:29:36 22:33:04 20° 95° (E) 22:36:31 435.000
FUNcube-1 30 Jun 22:35:00 22:38:11 21° 265° (W) 22:41:25 145.935
UNISAT 6 30 Jun 22:35:15 22:39:07 25° 96° (E) 22:42:58 437.425
PRISM 30 Jun 22:38:12 22:40:36 15° 292° (WNW) 22:43:00 437.425
YUBILEINY 30 Jun 22:43:17 22:48:57 18° 69° (ENE) 22:54:35 435.215
VELOX 1 30 Jun 22:55:24 22:57:15 12° 67° (ENE) 22:59:04 145.980
RS-15 30 Jun 22:59:36 23:10:10 35° 255° (WSW) 23:20:35 29.354- 29.394
HUMSAT D 30 Jun 23:09:07 23:12:57 36° 262° (W) 23:16:51 437.325/437.525
ANTELSAT 30 Jun 23:14:17 23:18:59 72° 101° (ESE) 23:23:40 437.575/2403.000
50 SAT 30 Jun 23:16:05 23:18:53 20° 71° (ENE) 23:21:41 437.505
DELFI C3 30 Jun 23:17:40 23:19:16 12° 267° (W) 23:20:53 145.870
UKube-1 30 Jun 23:21:58 23:24:28 15° 68° (ENE) 23:26:58 .
AISAT 30 Jun 23:34:03 23:38:06 38° 73° (ENE) 23:42:10 437.250
ESTCUBE 1 30 Jun 23:39:57 23:44:28 74° 76° (ENE) 23:49:00 437.505/2401.250
DX 1 30 Jun 23:45:02 23:49:01 36° 73° (ENE) 23:53:01 434.975-435.025
Cosmos 2491 30 Jun 23:47:28 23:54:45 30° 85° (E) 00:02:00 435.465 / 435.565
NANOSAT C BR1 30 Jun 23:51:26 23:54:55 24° 97° (E) 23:58:23 145.865
QB50P1 30 Jun 23:55:44 23:59:28 29° 98° (E) 00:03:12 145.935-145.965
POPSAT HIP 1 30 Jun 23:59:08 00:02:57 31° 98° (E) 00:06:46 437.405
TIGRISAT 01 Jul 00:05:34 00:09:42 32° 288° (WNW) 00:13:51 435.000
Cosmos 2504 01 Jul 00:10:17 00:16:35 21° 70° (ENE) 00:22:38 435.465 / 435.565
DUCHIFAT 1 01 Jul 00:10:19 00:14:18 39° 99° (E) 00:18:17 145.980
UNISAT 6 01 Jul 00:11:50 00:15:41 26° 289° (WNW) 00:19:32 437.425
QB50P2 01 Jul 00:11:52 00:16:01 50° 100° (E) 00:20:10 145.880/145.840
CUBEBUG 1 01 Jul 00:13:57 00:18:17 66° 259° (W) 00:22:36 437.445
POLYITAN 1 01 Jul 00:14:28 00:18:39 51° 100° (E) 00:22:50 437.675
SO-50 01 Jul 00:19:12 00:23:23 33° 56° (NE) 00:27:28 436.795
VELOX 1 01 Jul 00:28:59 00:33:15 47° 260° (W) 00:37:30 145.980
TISAT 1 01 Jul 00:29:40 00:31:50 14° 68° (ENE) 00:34:01 437.305
YUBILEINY 01 Jul 00:37:44 00:46:34 78° 267° (W) 00:55:23 435.215
50 SAT 01 Jul 00:49:45 00:52:25 19° 264° (W) 00:55:06 437.505
SPROUT 01 Jul 00:52:23 00:56:34 62° 259° (W) 01:00:47 437.525
BUGSAT 1 01 Jul 00:55:16 00:59:21 59° 101° (E) 01:03:27 437.445
UKube-1 01 Jul 00:56:12 01:00:10 36° 261° (W) 01:04:10 .
JAS-2 01 Jul 00:57:07 01:01:42 28° 96° (E) 01:06:06 435.910
PCSat 01 Jul 01:06:56 01:11:53 38° 109° (ESE) 01:16:52 145.827
AISAT 01 Jul 01:12:14 01:14:40 15° 266° (W) 01:17:06 437.250
DX 1 01 Jul 01:22:52 01:25:17 15° 265° (W) 01:27:43 434.975-435.025
BEESAT 2 01 Jul 01:23:04 01:25:25 15° 109° (ESE) 01:27:46 435.950
Oscar 19 01 Jul 01:26:01 01:29:27 18° 95° (E) 01:32:51 437.125/150
NANOSAT C BR1 01 Jul 01:27:14 01:30:29 21° 290° (WNW) 01:33:43 145.865
QB50P1 01 Jul 01:32:04 01:35:00 18° 290° (WNW) 01:37:55 145.935-145.965
POPSAT HIP 1 01 Jul 01:35:41 01:38:27 17° 291° (WNW) 01:41:13 437.405
Cosmos 2491 01 Jul 01:42:46 01:51:08 48° 281° (W) 01:59:31 435.465 / 435.565
DUCHIFAT 1 01 Jul 01:47:27 01:49:37 14° 292° (WNW) 01:51:47 145.980
QB50P2 01 Jul 01:50:07 01:51:20 11° 293° (WNW) 01:52:33 145.880/145.840
POLYITAN 1 01 Jul 01:52:52 01:53:57 11° 293° (WNW) 01:55:03 437.675
SO-50 01 Jul 02:00:18 02:03:35 20° 251° (WSW) 02:06:47 436.795
Cosmos 2504 01 Jul 02:01:56 02:10:40 70° 268° (W) 02:18:55 435.465 / 435.565
TISAT 1 01 Jul 02:03:18 02:07:08 36° 261° (W) 02:10:59 437.305
Gurwin Techsat 1B 01 Jul 02:04:05 02:07:42 18° 95° (E) 02:11:17 435.225
O/OREOS (USA 219) 01 Jul 02:07:19 02:11:41 54° 106° (ESE) 02:16:04 437.305
SWISSCUBE 01 Jul 02:09:22 02:13:52 42° 72° (ENE) 02:18:23 437.505
BEESAT 3 01 Jul 02:15:47 02:19:36 53° 300° (WNW) 02:23:28 437.485
BEESAT 01 Jul 02:34:03 02:38:48 72° 75° (ENE) 02:43:35 436.000
ITUPSAT 1 01 Jul 02:36:52 02:41:39 76° 75° (ENE) 02:46:28 437.325
YUBILEINY 01 Jul 02:40:05 02:41:49 11° 283° (WNW) 02:43:33 435.215
JAS-2 01 Jul 02:42:17 02:46:41 26° 292° (WNW) 02:50:53 435.910
PCSat 01 Jul 02:50:58 02:55:19 24° 304° (NW) 02:59:43 145.827
BEESAT 2 01 Jul 02:59:23 03:02:56 32° 303° (WNW) 03:06:32 435.950
Oscar 19 01 Jul 03:04:04 03:08:52 42° 288° (WNW) 03:13:40 437.125/150
ITAMSAT 1 01 Jul 03:32:21 03:37:24 48° 100° (E) 03:42:24 435.822/435.867
AO-7 01 Jul 03:36:14 03:42:44 25° 97° (E) 03:49:10 29.400- 29.500
Gurwin Techsat 1B 01 Jul 03:42:45 03:47:45 43° 288° (WNW) 03:52:45 435.225
SWISSCUBE 01 Jul 03:48:57 03:51:47 16° 266° (W) 03:54:38 437.505
O/OREOS (USA 219) 01 Jul 03:49:47 03:51:23 12° 301° (WNW) 03:52:59 437.305
AIST 2 01 Jul 04:03:51 04:07:50 52° 115° (ESE) 04:11:51 435.215
KKS-1 01 Jul 04:15:54 04:20:18 78° 257° (WSW) 04:24:44 437.445
MOZHAYETS 4 01 Jul 04:26:09 04:30:44 68° 259° (WSW) 04:35:22
CUBESAT XI-V 01 Jul 04:27:30 04:29:12 12° 66° (ENE) 04:30:54 437.345
Cosmos 2499 01 Jul 04:39:53 04:44:09 14° 66° (ENE) 04:48:18 435.465 / 435.565
STARS 01 Jul 04:40:27 04:44:48 84° 255° (WSW) 04:49:11 437.465
GONETS M04 01 Jul 04:40:33 04:47:25 25° 73° (ENE) 04:54:15
AIST 1 01 Jul 04:49:06 04:53:12 48° 267° (W) 04:57:19
PHONESAT 2.4 01 Jul 05:00:15 05:03:12 46° 149° (SSE) 05:06:08 2401.200-2431.200
ITAMSAT 1 01 Jul 05:13:07 05:16:25 17° 294° (WNW) 05:19:43 435.822/435.867
AO-7 01 Jul 05:27:37 05:35:49 61° 291° (WNW) 05:43:58 29.400- 29.500
HORYU 2 01 Jul 05:36:44 05:41:08 51° 100° (E) 05:45:30 437.375
AIST 2 01 Jul 05:44:50 05:46:36 12° 310° (NW) 05:48:21 435.215
CUSAT 1 01 Jul 05:49:38 05:52:17 12° 87° (E) 05:54:49 437.405
AO-85 01 Jul 05:50:58 05:54:41 26° 54° (NE) 05:58:11 145.980
CUBESAT XI-V 01 Jul 06:01:25 06:06:02 57° 260° (W) 06:10:40 437.345
Cubesat XI-IV 01 Jul 06:02:22 06:04:15 12° 92° (E) 06:06:08 437.490
NOAA 18 01 Jul 06:18:08 06:22:10 20° 95° (E) 06:26:13 137.9125
Cosmos 2499 01 Jul 06:29:48 06:38:31 89° 84° (E) 06:46:33 435.465 / 435.565
ISS 01 Jul 06:30:04 06:32:20 18° 128° (SE) 06:34:37 145.825
CUTE-I 01 Jul 06:33:31 06:38:00 27° 97° (E) 06:42:29 437.470
DANDE 01 Jul 06:36:02 06:40:59 17° 85° (E) 06:45:45 436.750
GONETS M04 01 Jul 06:36:08 06:44:36 59° 269° (W) 06:53:08
PHONESAT 2.4 01 Jul 06:37:07 06:39:52 30° 343° (NNW) 06:42:38 2401.200-2431.200
NOAA 15 01 Jul 06:51:43 06:56:54 59° 101° (ESE) 07:02:02 137.62
STRAND 1 01 Jul 06:54:03 06:58:34 32° 70° (ENE) 07:03:06 437.568
LilacSat-2 01 Jul 06:54:26 06:58:09 41° 99° (E) 07:01:50 437.200
BRITE-PL 01 Jul 07:05:29 07:09:39 90° 108° (ESE) 07:13:58 437.365/2234.400
HORYU 2 01 Jul 07:15:25 07:17:11 12° 294° (WNW) 07:18:56 437.375
GOMX 1 01 Jul 07:24:04 07:28:18 60° 101° (E) 07:32:47 467.674
CUSAT 1 01 Jul 07:25:55 07:33:49 85° 97° (E) 07:40:29 437.405
AO-7 01 Jul 07:26:24 07:26:52 10° 309° (NW) 07:27:19 29.400- 29.500
AO-85 01 Jul 07:31:44 07:34:55 21° 251° (WSW) 07:37:55 145.980
Cubesat XI-IV 01 Jul 07:39:21 07:44:41 66° 286° (WNW) 07:50:00 437.490
HO-68 01 Jul 07:40:57 07:44:51 15° 93° (E) 07:48:43 435.675
PRISM 01 Jul 07:48:30 07:50:29 13° 68° (ENE) 07:52:28 437.425
NOAA 18 01 Jul 07:57:43 08:02:55 42° 289° (WNW) 08:08:07 137.9125
ISS 01 Jul 08:05:41 08:08:36 30° 321° (NW) 08:11:31 145.825
DOVE 4 01 Jul 08:09:24 08:13:51 88° 98° (E) 08:18:36 437.250
CUTE-I 01 Jul 08:13:19 08:17:58 31° 290° (WNW) 08:22:35 437.470
DANDE 01 Jul 08:14:37 08:23:05 85° 279° (W) 08:30:56 436.750
PHONESAT 2.4 01 Jul 08:14:51 08:17:02 18° 360° (N) 08:19:14 2401.200-2431.200
Cosmos 2499 01 Jul 08:26:24 08:30:13 14° 282° (WNW) 08:33:56 435.465 / 435.565
LilacSat-2 01 Jul 08:31:07 08:32:01 11° 292° (WNW) 08:32:55 437.200
NOAA 15 01 Jul 08:33:28 08:36:06 14° 295° (WNW) 08:38:45 137.62
STRAND 1 01 Jul 08:33:36 08:37:41 24° 264° (W) 08:41:49 437.568
COMPASS 1 01 Jul 08:38:38 08:41:33 18° 95° (E) 08:44:25 437.405
CINEMA 3 01 Jul 08:43:26 08:48:03 58° 100° (E) 08:52:50 145.822/145.860
CANX-2 01 Jul 08:47:27 08:51:42 62° 101° (E) 08:55:53 2200.000
UWE-3 01 Jul 09:03:05 09:06:12 18° 94° (E) 09:09:20 435.000/436.395/437.385
SEEDS 01 Jul 09:05:21 09:09:32 61° 100° (E) 09:13:41 437.485
CUTE 1.7 + AOD 2 01 Jul 09:06:50 09:11:07 87° 280° (W) 09:15:21 437.475
CUSAT 1 01 Jul 09:12:11 09:16:07 15° 287° (WNW) 09:19:46 437.405
PRISM 01 Jul 09:21:31 09:25:24 39° 261° (W) 09:29:19 437.425
HO-68 01 Jul 09:25:53 09:33:05 77° 287° (WNW) 09:40:16 435.675
UNISAT 6 01 Jul 09:31:41 09:33:23 12° 66° (ENE) 09:35:06 437.425
AAUSAT CUBESAT 2 01 Jul 09:35:50 09:40:00 78° 101° (ESE) 09:44:07 437.432
M-CUBED/EXP-1 PRIME 01 Jul 09:38:34 09:42:17 32° 104° (ESE) 09:46:13 437.505
PHONESAT 2.4 01 Jul 09:51:28 09:54:13 29° 17° (NNE) 09:56:57 2401.200-2431.200
CUBEBUG 2 01 Jul 09:57:08 10:01:48 72° 284° (WNW) 10:06:32 437.445
PCSat 01 Jul 10:01:01 10:03:29 13° 50° (NE) 10:05:57 145.827
DANDE 01 Jul 10:02:06 10:06:33 15° 291° (WNW) 10:10:51 436.750
ANTELSAT 01 Jul 10:08:54 10:12:46 33° 72° (ENE) 10:16:43 437.575/2403.000
ZACube-1 01 Jul 10:10:10 10:14:44 69° 101° (E) 10:19:18 437.345
COMPASS 1 01 Jul 10:13:32 10:17:03 27° 288° (WNW) 10:20:33 437.405
Oscar 11 01 Jul 10:14:14 10:18:36 82° 102° (ESE) 10:22:55 145.826/435.025
CINEMA 3 01 Jul 10:22:57 10:24:42 12° 293° (WNW) 10:26:28 145.822/145.860
FUNcube-1 01 Jul 10:26:01 10:30:36 82° 285° (WNW) 10:35:10 145.935
AUBIESAT-1 01 Jul 10:30:37 10:34:43 70° 288° (WNW) 10:39:05 437.475
BEESAT 3 01 Jul 10:37:50 10:40:46 20° 54° (NE) 10:43:42 437.485
UWE-3 01 Jul 10:38:27 10:42:40 36° 287° (WNW) 10:46:56 435.000/436.395/437.385
NANOSAT C BR1 01 Jul 10:42:06 10:42:37 10° 66° (ENE) 10:43:09 145.865
QB50P1 01 Jul 10:45:35 10:47:22 12° 67° (ENE) 10:49:09 145.935-145.965
POPSAT HIP 1 01 Jul 10:48:48 10:50:52 13° 68° (ENE) 10:52:56 437.405
HUMSAT D 01 Jul 10:56:41 11:00:51 48° 99° (E) 11:04:59 437.325/437.525
DELFI C3 01 Jul 10:57:08 11:01:06 66° 283° (WNW) 11:05:00 145.870
DUCHIFAT 1 01 Jul 10:58:56 11:01:31 16° 69° (ENE) 11:04:06 145.980
TIGRISAT 01 Jul 10:59:10 11:03:23 60° 259° (W) 11:07:42 435.000
QB50P2 01 Jul 11:00:45 11:03:52 21° 70° (ENE) 11:07:01 145.880/145.840
RS-15 01 Jul 11:03:00 11:13:55 60° 111° (ESE) 11:25:26 29.354- 29.394
POLYITAN 1 01 Jul 11:03:20 11:06:30 21° 70° (ENE) 11:09:41 437.675
UNISAT 6 01 Jul 11:05:29 11:09:37 46° 261° (W) 11:13:51 437.425
JAS-2 01 Jul 11:07:49 11:09:28 11° 61° (ENE) 11:11:07 435.910
M-CUBED/EXP-1 PRIME 01 Jul 11:13:49 11:16:35 18° 294° (WNW) 11:19:29 437.505
HO-68 01 Jul 11:17:24 11:19:37 12° 303° (WNW) 11:21:50 435.675
BEESAT 2 01 Jul 11:21:21 11:24:58 32° 57° (ENE) 11:28:33 435.950
PHONESAT 2.4 01 Jul 11:27:55 11:30:53 48° 212° (SSW) 11:33:52 2401.200-2431.200
ESTCUBE 1 01 Jul 11:37:50 11:41:17 22° 96° (E) 11:44:43 437.505/2401.250
YUBILEINY 01 Jul 11:38:35 11:45:07 24° 83° (E) 11:51:39 435.215
BUGSAT 1 01 Jul 11:41:19 11:44:22 21° 71° (ENE) 11:47:26 437.445
PCSat 01 Jul 11:42:02 11:47:28 79° 247° (WSW) 11:52:52 145.827
ANTELSAT 01 Jul 11:46:56 11:49:33 16° 266° (W) 11:52:12 437.575/2403.000
Cosmos 2491 01 Jul 11:58:18 12:06:59 70° 82° (E) 12:15:40 435.465 / 435.565
CUBEBUG 1 01 Jul 12:07:20 12:11:10 31° 98° (E) 12:15:00 437.445
NANOSAT C BR1 01 Jul 12:13:47 12:17:50 51° 260° (W) 12:21:56 145.865
BEESAT 3 01 Jul 12:15:05 12:18:24 26° 248° (WSW) 12:21:42 437.485
QB50P1 01 Jul 12:18:46 12:22:43 42° 261° (W) 12:26:43 145.935-145.965
O/OREOS (USA 219) 01 Jul 12:21:48 12:26:08 47° 68° (ENE) 12:30:28 437.305
50 SAT 01 Jul 12:22:08 12:25:41 46° 99° (E) 12:29:12 437.505
POPSAT HIP 1 01 Jul 12:22:22 12:26:16 38° 261° (W) 12:30:12 437.405
VELOX 1 01 Jul 12:23:30 12:27:42 43° 100° (E) 12:31:53 145.980
DUCHIFAT 1 01 Jul 12:33:13 12:36:55 31° 262° (W) 12:40:38 145.980
HUMSAT D 01 Jul 12:34:28 12:36:00 12° 293° (WNW) 12:37:32 437.325/437.525
QB50P2 01 Jul 12:36:05 12:39:30 24° 263° (W) 12:42:57 145.880/145.840
POLYITAN 1 01 Jul 12:38:46 12:42:08 24° 264° (W) 12:45:32 437.675
Oscar 19 01 Jul 12:38:55 12:42:12 17° 67° (ENE) 12:45:28 437.125/150
SPROUT 01 Jul 12:43:05 12:46:53 30° 98° (E) 12:50:40 437.525
Cosmos 2504 01 Jul 12:43:55 12:48:59 18° 80° (E) 12:54:15 435.465 / 435.565
JAS-2 01 Jul 12:45:53 12:53:32 73° 75° (ENE) 13:00:32 435.910
UKube-1 01 Jul 12:47:26 12:51:38 49° 100° (E) 12:55:48 .
BEESAT 2 01 Jul 13:00:06 13:02:30 15° 251° (WSW) 13:04:53 435.950
AISAT 01 Jul 13:04:41 13:08:59 53° 285° (WNW) 13:13:15 437.250
DX 1 01 Jul 13:13:21 13:17:37 59° 285° (WNW) 13:21:52 434.975-435.025
ESTCUBE 1 01 Jul 13:14:16 13:18:00 27° 289° (WNW) 13:21:44 437.505/2401.250
RS-15 01 Jul 13:16:32 13:26:51 38° 312° (NW) 13:37:45 29.354- 29.394
BUGSAT 1 01 Jul 13:16:32 13:19:37 21° 264° (W) 13:22:42 437.445
Gurwin Techsat 1B 01 Jul 13:20:57 13:24:40 20° 67° (ENE) 13:28:23 435.225
JUGNU 01 Jul 13:22:09 13:25:37 16° 166° (SSE) 13:29:04 437.505
YUBILEINY 01 Jul 13:32:40 13:41:10 59° 279° (W) 13:49:48 435.215
CUBEBUG 1 01 Jul 13:44:17 13:47:11 18° 291° (WNW) 13:50:04 437.445
TISAT 1 01 Jul 13:51:19 13:55:22 45° 100° (E) 13:59:25 437.305
Cosmos 2491 01 Jul 13:57:13 14:02:52 20° 278° (W) 14:08:34 435.465 / 435.565
VELOX 1 01 Jul 14:01:38 14:03:45 13° 293° (WNW) 14:05:51 145.980
O/OREOS (USA 219) 01 Jul 14:03:31 14:05:02 12° 262° (W) 14:06:32 437.305
AIST 2 01 Jul 14:07:32 14:11:40 69° 244° (WSW) 14:15:46 435.215
SWISSCUBE 01 Jul 14:15:26 14:18:16 16° 94° (E) 14:21:05 437.505
Oscar 19 01 Jul 14:16:11 14:21:06 45° 260° (W) 14:26:02 437.125/150
SPROUT 01 Jul 14:19:41 14:22:34 18° 291° (WNW) 14:25:27 437.525
UKube-1 01 Jul 14:25:48 14:27:12 11° 294° (WNW) 14:28:34 .
SO-50 01 Jul 14:28:36 14:32:56 33° 112° (ESE) 14:37:18 436.795
AO-7 01 Jul 14:30:59 14:37:13 24° 59° (ENE) 14:43:27 29.400- 29.500
Cosmos 2504 01 Jul 14:33:12 14:41:15 74° 277° (W) 14:49:55 435.465 / 435.565
JAS-2 01 Jul 14:33:57 14:38:46 18° 266° (W) 14:43:24 435.910
ISS 01 Jul 14:36:42 14:39:38 30° 39° (NE) 14:42:33 145.825
BEESAT 01 Jul 14:39:19 14:43:19 26° 97° (E) 14:47:18 436.000
ITUPSAT 1 01 Jul 14:42:29 14:46:35 28° 97° (E) 14:50:39 437.325
SRMSAT 01 Jul 14:44:51 14:46:18 11° 162° (SSE) 14:47:47 437.500
ITAMSAT 1 01 Jul 14:45:44 14:50:40 46° 73° (ENE) 14:55:40 435.822/435.867
Gurwin Techsat 1B 01 Jul 14:59:14 15:04:14 42° 261° (W) 15:09:17 435.225
JUGNU 01 Jul 15:09:23 15:14:00 23° 176° (S) 15:18:38 437.505
TISAT 1 01 Jul 15:28:59 15:30:35 12° 293° (WNW) 15:32:11 437.305
RS-15 01 Jul 15:40:19 15:44:31 12° 344° (NNW) 15:48:47 29.354- 29.394
SWISSCUBE 01 Jul 15:51:41 15:56:11 42° 287° (WNW) 16:00:38 437.505
SO-50 01 Jul 16:09:25 16:13:25 25° 306° (NW) 16:17:26 436.795
KKS-1 01 Jul 16:11:44 16:15:35 28° 98° (E) 16:19:25 437.445
ISS 01 Jul 16:13:38 16:15:53 18° 232° (SW) 16:18:09 145.825
BEESAT 01 Jul 16:17:03 16:20:57 25° 290° (WNW) 16:24:51 436.000
ITUPSAT 1 01 Jul 16:20:25 16:24:15 24° 291° (WNW) 16:28:03 437.325
AO-7 01 Jul 16:20:59 16:29:13 67° 255° (WSW) 16:37:33 29.400- 29.500
MOZHAYETS 4 01 Jul 16:25:55 16:30:16 39° 98° (E) 16:34:34
ITAMSAT 1 01 Jul 16:27:02 16:30:18 17° 266° (W) 16:33:36 435.822/435.867
SRMSAT 01 Jul 16:30:34 16:34:50 20° 171° (S) 16:39:05 437.500
HORYU 2 01 Jul 16:30:39 16:34:21 27° 70° (ENE) 16:38:03 437.375
Cosmos 2504 01 Jul 16:34:21 16:36:12 11° 297° (WNW) 16:38:05 435.465 / 435.565
STARS 01 Jul 16:34:53 16:38:31 25° 97° (E) 16:42:07 437.465
JUGNU 01 Jul 16:57:55 17:02:28 22° 186° (S) 17:06:59 437.505
Cosmos 2499 01 Jul 17:12:52 17:15:38 12° 77° (ENE) 17:18:26 435.465 / 435.565
AIST 1 01 Jul 17:13:10 17:17:27 68° 276° (W) 17:21:45
Cubesat XI-IV 01 Jul 17:19:56 17:22:30 14° 64° (ENE) 17:25:04 437.490
LilacSat-2 01 Jul 17:34:28 17:35:32 11° 68° (ENE) 17:36:37 437.200
GONETS M04 01 Jul 17:35:45 17:43:14 33° 86° (E) 17:50:42
NOAA 18 01 Jul 17:39:55 17:44:20 26° 68° (ENE) 17:48:45 137.9125
KKS-1 01 Jul 17:48:38 17:51:56 21° 291° (WNW) 17:55:14 437.445
CUTE-I 01 Jul 17:50:55 17:55:26 29° 69° (ENE) 17:59:58 437.470
RS-15 01 Jul 17:59:08 18:05:17 15° 24° (NNE) 18:11:26 29.354- 29.394
CUBESAT XI-V 01 Jul 18:02:35 18:07:04 50° 100° (E) 18:11:30 437.345
MOZHAYETS 4 01 Jul 18:04:14 18:07:03 16° 292° (WNW) 18:09:52
NOAA 15 01 Jul 18:07:07 18:12:19 60° 74° (ENE) 18:17:30 137.62
HORYU 2 01 Jul 18:07:27 18:10:49 21° 264° (W) 18:14:12 437.375
CUSAT 1 01 Jul 18:09:11 18:11:30 19° 74° (ENE) 18:13:33 437.405
STARS 01 Jul 18:11:14 18:14:42 23° 290° (WNW) 18:18:10 437.465
BRITE-PL 01 Jul 18:11:15 18:16:16 63° 76° (ENE) 18:20:53 437.365/2234.400
SRMSAT 01 Jul 18:18:44 18:23:25 24° 181° (S) 18:28:05 437.500
GOMX 1 01 Jul 18:28:00 18:32:15 38° 74° (ENE) 18:36:16 467.674
JUGNU 01 Jul 18:47:51 18:50:51 14° 195° (SSW) 18:53:51 437.505
Cubesat XI-IV 01 Jul 18:56:41 19:01:57 63° 258° (WSW) 19:07:17 437.490
Cosmos 2499 01 Jul 18:58:56 19:07:10 82° 95° (E) 19:16:00 435.465 / 435.565
DANDE 01 Jul 19:03:20 19:07:13 41° 76° (ENE) 19:10:15 436.750
LilacSat-2 01 Jul 19:05:56 19:09:26 37° 262° (W) 19:12:59 437.200
STRAND 1 01 Jul 19:10:17 19:13:16 15° 94° (E) 19:16:15 437.568
